RH
47 45 43 41 40 39 39 42 43 44 45 42 38 34 31 29 29 30 29 28 29 29 31 35 38 41 44 45 46 48 49 49 49 49 47 44 43 43 45 48 49 50 52 53 54 55 56 59 63 66 65 63 63 62 61 59 57 59 63 60 54 53 56 57 53 47 45 42 36 34 31 29 34 39 38 39 42 43 44 46 51 59 62 64 68 68 61
55 54 53 51 48 44 42 45 46 48 52 52 49 44 39 34 31 31 30 29 29 31 33 36 39 42 46 48 49 51 52 51 50 51 49 45 42 42 44 48 52 55 56 57 59 59 59 62 68 70 67 63 64 65 64 63 60 61 67 66 56 52 57 64 65 59 53 47 38 33 29 29 34 38 36 37 41 43 45 45 49 60 67 67 64 60 60
64 62 59 58 56 53 50 49 50 51 54 58 56 50 46 42 40 38 35 32 32 34 36 39 41 44 48 50 52 52 51 47 47 48 47 45 46 47 49 53 56 58 59 58 60 59 58 61 64 61 59 62 69 70 68 68 67 68 73 71 63 59 58 63 71 70 62 55 46 38 35 37 40 37 33 38 44 44 44 46 51 57 64 65 59 52 58
69 65 65 66 66 66 63 58 56 55 57 61 61 56 51 49 48 47 43 40 41 42 43 44 45 47 49 51 53 54 53 49 48 48 47 49 54 56 57 58 58 58 53 46 45 47 48 50 50 46 48 60 70 68 67 72 70 64 65 68 70 68 62 58 62 69 72 69 57 43 39 42 44 42 39 41 45 45 44 50 56 57 54 52 50 48 52
74 72 75 75 74 79 74 63 58 60 62 64 63 61 57 53 53 53 50 49 50 51 50 51 51 51 51 52 53 54 55 53 50 50 52 57 62 61 60 59 56 52 45 35 32 36 39 42 45 43 44 54 66 68 68 73 71 59 54 61 70 72 68 63 59 63 71 71 60 47 43 44 46 48 47 44 45 47 49 53 56 53 48 45 43 43 45
78 78 80 83 87 86 73 63 63 63 60 62 64 63 59 55 55 56 53 53 54 54 55 57 55 54 53 53 52 53 54 54 54 55 57 60 62 58 53 50 47 39 33 31 31 35 39 42 47 48 44 46 57 66 70 73 74 66 58 61 69 72 72 68 61 60 65 67 62 54 49 47 47 50 52 49 46 46 48 49 48 45 45 46 45 44 46
81 82 87 93 93 80 65 66 71 65 56 57 61 62 60 58 58 57 54 53 51 50 53 55 54 55 56 53 51 52 53 53 55 57 56 57 57 55 48 42 38 32 29 31 34 37 42 46 48 51 49 45 48 55 64 70 72 68 62 59 60 62 65 63 59 61 64 64 60 53 49 49 50 51 52 49 44 41 40 40 41 44 46 46 46 49 52
85 89 96 94 83 72 69 74 75 68 60 57 60 63 62 59 59 58 56 54 52 51 52 55 58 61 61 56 51 51 52 53 54 55 56 57 54 50 46 40 33 29 29 31 34 36 40 46 49 51 51 49 46 46 52 62 66 65 61 57 53 53 58 60 62 64 62 59 58 53 47 48 50 50 50 45 40 36 35 35 38 40 43 45 46 49 51
93 95 97 89 80 75 73 74 76 74 65 56 58 60 58 56 56 56 57 56 56 57 57 60 65 67 63 59 55 53 57 61 63 58 54 56 59 58 52 46 46 46 40 38 41 42 41 44 48 51 52 51 48 44 44 53 60 60 56 53 51 51 53 57 63 66 63 62 66 63 53 49 47 45 44 43 40 37 35 38 40 39 40 43 44 46 47
97 98 97 93 91 83 71 66 70 70 63 58 59 58 58 61 60 57 57 57 56 60 62 66 73 73 67 63 59 59 62 62 63 62 61 67 77 77 64 57 68 73 59 48 48 47 44 45 48 51 52 51 49 45 42 47 55 55 51 48 50 52 55 59 66 70 67 63 65 64 59 53 50 47 45 46 47 46 44 44 44 41 42 44 44 45 46
97 99 98 92 87 79 70 68 67 65 61 59 62 65 65 67 64 58 57 58 58 60 63 69 76 76 69 63 61 64 67 65 65 70 74 76 78 76 69 70 82 81 62 49 47 44 43 47 50 52 51 47 47 46 42 43 49 51 49 49 51 54 58 63 65 66 66 65 65 65 60 56 54 53 53 52 51 51 50 47 45 45 48 50 48 45 42
97 99 99 92 86 79 76 74 68 63 62 62 66 75 77 72 64 57 57 58 60 64 69 74 78 76 69 64 63 67 71 73 75 77 77 74 71 70 73 77 76 67 56 52 50 45 46 50 53 52 49 45 46 46 42 43 49 52 53 53 54 56 62 68 67 62 60 62 62 59 56 56 56 55 56 57 55 53 51 48 48 49 50 52 52 49 46
97 99 100 95 88 82 81 80 69 61 66 72 74 77 79 73 62 53 54 57 61 68 72 71 72 74 71 66 65 69 74 78 80 82 82 80 76 71 71 73 68 58 53 56 55 52 53 54 53 52 49 47 50 49 47 48 52 55 57 55 51 54 63 71 71 64 58 58 61 60 59 59 58 55 53 54 53 52 51 51 53 53 51 54 56 53 52
96 98 99 96 89 79 77 82 77 69 74 81 79 76 76 72 62 56 59 62 64 66 66 63 64 68 68 64 63 68 76 78 79 79 78 77 74 69 67 72 71 59 50 54 59 60 59 57 55 54 52 52 53 53 55 58 57 55 57 54 51 54 59 63 63 60 58 61 68 72 67 60 58 55 50 47 49 53 55 57 61 62 63 64 62 58 57
95 101 100 95 88 78 71 72 74 75 80 80 78 77 77 72 65 63 65 65 64 63 61 58 56 55 59 64 66 67 69 68 68 68 67 66 71 76 80 83 80 67 56 60 65 65 64 62 57 56 56 57 58 57 62 68 63 56 55 54 53 55 59 60 61 61 65 69 71 71 65 58 57 57 52 48 50 52 52 52 55 61 69 70 66 62 60
93 98 92 82 78 78 77 72 67 72 79 81 80 79 77 76 73 70 67 65 64 62 59 59 60 59 60 63 66 68 69 68 70 75 78 78 83 91 96 96 86 70 63 69 71 68 67 65 60 58 59 60 61 60 61 64 62 58 58 57 55 57 62 67 68 68 71 72 68 64 61 58 57 56 51 47 45 43 41 40 40 48 63 71 72 68 62
81 78 72 69 70 73 77 76 73 74 78 81 83 81 79 82 81 76 73 72 70 68 68 69 72 73 70 68 71 76 77 75 74 76 82 90 94 94 95 97 90 73 63 67 72 70 70 68 64 62 62 61 63 63 60 60 61 61 63 63 61 61 61 63 67 69 69 68 65 61 60 58 55 51 46 41 38 36 38 43 50 57 64 70 74 74 68
78 70 65 66 71 73 72 70 73 77 76 80 89 89 84 84 83 80 80 79 77 79 81 79 80 81 79 79 83 85 81 75 68 62 66 79 92 96 96 98 97 82 64 60 63 65 67 68 66 65 63 62 65 65 63 62 61 62 64 65 66 66 63 62 67 69 68 65 62 58 55 51 47 42 37 34 34 34 36 45 58 63 61 61 68 74 74
77 72 64 62 68 76 75 70 73 79 82 87 93 92 86 85 84 83 84 82 81 83 85 81 80 82 82 82 83 83 81 75 65 55 53 60 72 85 91 92 89 78 62 57 58 58 58 61 63 64 66 66 67 66 65 65 65 63 63 64 64 65 64 64 66 67 66 63 60 54 48 43 38 35 34 35 38 40 40 45 55 61 63 68 73 75 75
78 76 74 74 78 80 79 77 79 84 88 90 89 86 85 88 89 86 83 83 83 84 82 79 79 82 83 83 83 83 80 73 63 57 54 52 54 63 71 77 81 76 63 55 53 51 50 52 54 57 62 66 69 69 66 66 67 67 67 66 66 66 64 63 63 64 64 63 60 54 47 40 37 37 38 38 40 42 46 54 63 70 76 81 80 74 70
82 81 81 86 89 87 82 80 79 82 89 93 91 89 87 89 90 86 80 81 85 85 82 81 82 83 81 80 84 85 76 64 55 51 48 45 44 45 48 56 70 75 67 59 59 57 51 47 47 48 52 59 68 72 72 69 67 66 66 66 67 67 65 64 63 63 63 63 62 60 53 44 41 40 39 39 39 39 47 59 67 71 77 81 80 77 74
83 81 80 85 91 91 89 88 87 90 95 96 93 90 87 85 86 86 85 87 89 87 84 80 80 79 76 74 78 76 63 50 46 45 42 40 38 38 38 42 51 59 62 64 67 63 55 51 50 47 45 48 54 61 69 73 73 71 70 69 69 69 68 67 65 65 68 69 68 65 57 48 44 43 40 39 38 38 45 57 63 66 72 77 77 79 80
83 84 85 87 90 92 93 94 93 93 94 93 89 87 85 85 86 89 91 90 87 84 81 75 73 73 71 66 61 54 44 37 33 32 31 31 31 33 36 38 41 47 55 58 57 55 59 65 67 60 53 51 50 49 52 58 63 67 70 71 72 73 74 73 69 68 71 72 69 67 65 62 61 57 48 42 40 39 46 59 66 66 67 70 72 76 78
83 87 85 84 86 89 89 91 94 95 95 93 90 89 91 92 93 93 93 90 86 80 71 62 57 56 56 53 47 43 40 34 26 24 31 38 39 34 31 31 32 38 49 56 56 57 64 71 71 64 57 55 54 52 49 48 48 51 56 62 66 70 73 76 76 74 74 73 70 69 72 77 79 76 63 51 43 39 43 55 66 69 67 66 66 67 67
79 82 83 85 88 89 89 91 93 93 91 88 88 91 94 93 91 88 84 80 76 67 54 44 39 38 41 45 47 47 44 36 26 24 32 38 37 30 26 31 39 45 51 61 66 64 61 61 65 66 63 59 58 57 56 54 51 49 49 51 53 56 62 73 81 83 81 78 75 74 76 77 79 81 78 68 56 47 45 51 60 64 62 61 62 63 62
76 79 83 89 90 87 88 92 91 85 85 87 88 89 88 84 79 71 61 54 51 45 39 35 34 33 32 34 38 40 38 31 24 22 26 32 39 42 41 48 62 68 67 67 69 63 55 55 63 68 68 67 64 61 58 58 60 59 57 53 47 45 49 60 74 84 86 81 77 77 81 81 77 76 81 83 78 68 59 54 54 55 54 55 61 67 66
86 86 88 92 92 86 85 88 86 80 81 84 84 80 76 74 71 63 55 49 41 32 28 27 23 19 20 25 32 37 37 34 33 33 33 36 46 56 54 52 59 66 64 59 57 54 49 48 51 52 52 54 57 58 57 57 58 60 58 55 51 48 45 47 55 68 79 81 78 78 83 86 82 77 79 85 90 86 74 63 58 56 56 57 59 61 62
97 95 92 94 94 88 83 83 82 82 83 83 80 74 70 70 70 70 72 68 53 37 32 31 28 28 39 52 61 64 65 65 65 65 61 52 51 58 63 65 70 72 65 57 54 51 49 47 45 44 43 44 47 49 48 49 53 56 55 53 54 54 52 49 48 51 60 70 76 80 81 81 81 83 85 86 90 92 88 78 67 58 53 54 53 52 52
96 92 89 90 89 86 85 85 85 86 88 84 77 71 67 66 67 68 70 68 59 51 53 57 57 60 69 76 76 76 78 80 81 83 82 77 74 78 83 84 82 72 58 50 47 44 41 40 40 40 41 45 47 48 48 51 57 59 55 54 56 56 54 54 53 49 48 52 59 68 76 77 78 83 88 88 88 90 92 90 82 71 61 56 52 47 44
90 85 85 86 85 83 84 83 78 76 77 73 67 66 65 64 66 68 67 65 62 62 65 69 70 72 75 76 75 75 78 79 78 79 82 83 86 87 86 82 79 71 62 59 56 47 38 37 38 40 43 47 48 50 57 66 72 71 64 60 62 62 60 60 59 55 52 50 48 52 65 76 80 81 84 89 90 88 88 90 91 88 83 75 64 54 48
88 86 84 83 83 82 81 79 75 73 73 70 68 70 71 70 71 72 71 70 71 71 71 72 73 74 75 75 75 74 74 74 75 76 79 82 82 79 74 71 71 70 68 69 68 59 48 41 37 37 42 46 47 50 55 62 68 73 74 74 75 74 70 67 66 61 58 57 53 50 56 70 81 81 80 85 90 88 85 86 88 89 88 83 75 70 64
91 89 85 82 81 80 79 77 75 75 76 77 76 74 75 76 75 75 75 74 72 71 70 71 72 74 75 75 76 77 80 83 80 76 76 77 72 66 64 63 62 62 65 68 66 59 51 47 47 48 49 49 49 53 58 63 67 73 78 82 85 85 79 75 72 67 64 64 64 58 56 64 76 81 80 82 87 90 88 86 85 83 80 76 74 76 73
88 85 83 82 82 80 78 76 76 76 78 80 78 75 76 80 81 79 77 75 73 75 78 78 79 80 79 77 76 77 78 77 71 65 67 70 64 57 59 61 59 61 65 64 58 54 54 57 61 63 61 56 51 53 60 68 72 71 69 73 83 92 91 85 79 71 67 68 71 69 64 63 69 79 83 83 84 85 87 88 88 83 79 76 75 78 79
83 82 83 83 81 79 77 77 79 81 83 85 82 78 79 82 83 81 82 84 86 88 86 80 77 77 75 72 70 68 66 63 59 57 62 67 63 59 62 62 57 55 56 55 55 59 63 64 63 63 61 59 57 60 65 68 69 70 70 74 84 91 90 85 80 73 66 66 70 74 73 67 64 70 80 85 86 85 85 89 92 88 82 79 76 77 81
81 81 82 82 79 77 78 81 83 87 90 91 88 86 87 89 87 85 87 88 84 80 78 78 78 76 73 72 72 70 68 65 63 61 60 59 57 58 61 58 54 51 51 52 57 62 62 62 64 64 59 55 56 63 69 70 69 70 76 81 84 84 80 78 77 73 69 69 71 75 78 75 68 66 74 85 91 91 87 87 90 89 84 80 79 79 83
80 78 81 87 88 87 86 86 86 86 87 87 86 86 85 83 79 76 76 73 69 67 72 80 80 73 67 67 66 59 52 50 55 61 60 53 50 53 55 52 50 48 44 45 55 65 64 61 60 57 54 57 63 67 69 68 65 64 69 76 80 79 78 79 78 73 70 73 77 79 81 81 77 75 79 86 93 94 87 82 85 89 85 80 79 81 86
79 77 82 91 96 93 87 84 83 83 82 82 80 75 69 66 69 73 73 66 56 48 46 49 51 50 50 51 49 45 42 43 50 60 66 62 55 51 48 45 44 44 42 46 61 73 71 62 55 48 46 51 59 60 60 62 63 61 63 69 71 71 74 79 81 76 70 69 73 79 85 86 83 83 89 94 97 98 93 85 83 88 90 86 83 82 85
84 87 89 92 91 87 83 82 81 78 76 77 78 74 65 58 56 58 54 43 33 25 23 28 35 37 35 33 34 38 46 50 48 49 55 60 57 51 45 41 40 43 44 47 54 61 60 54 50 47 44 43 46 50 55 62 66 65 65 66 66 66 68 72 76 78 76 72 71 76 86 93 94 93 96 98 99 100 99 91 83 83 87 89 87 85 86
88 90 90 89 87 83 80 78 75 74 75 77 76 71 61 46 34 29 27 25 25 24 22 24 28 29 26 25 27 32 40 46 46 43 45 48 49 45 39 34 35 40 42 43 49 60 66 62 56 52 49 50 53 56 61 66 71 72 70 67 64 62 63 65 69 74 75 73 69 67 74 87 96 98 99 100 99 100 101 95 86 83 86 88 85 84 88
90 88 87 87 85 80 76 73 72 74 77 70 56 46 39 29 21 20 22 23 23 22 17 15 16 18 18 22 30 39 44 47 50 57 60 58 55 51 43 38 42 49 50 51 58 69 73 67 59 53 53 56 59 62 67 73 76 74 70 65 59 53 51 54 59 63 65 67 64 59 61 73 86 93 98 100 100 99 100 96 90 88 92 91 86 84 88
88 85 85 86 83 79 77 76 75 75 71 56 37 28 26 22 19 19 19 17 16 16 14 14 14 14 14 18 26 36 41 40 43 55 62 59 56 55 50 48 54 61 61 62 68 73 71 64 57 53 55 59 61 62 66 71 72 69 66 61 54 45 41 43 46 50 55 61 61 57 56 62 71 81 91 98 99 99 99 97 93 93 95 94 89 85 87
86 87 88 88 85 78 73 69 63 55 46 35 26 23 22 20 18 18 17 16 15 14 13 15 18 20 21 22 20 23 30 37 44 53 56 52 52 55 53 51 57 67 70 71 73 72 68 64 60 59 61 64 64 61 61 64 64 59 52 46 41 38 39 40 41 42 47 55 60 58 55 56 61 69 79 88 94 98 99 98 96 94 93 93 90 86 86
86 87 86 83 78 72 65 58 48 38 32 29 26 25 24 22 20 17 15 14 15 15 14 17 19 19 20 22 22 25 33 42 50 55 57 56 58 63 63 62 64 70 74 75 76 72 68 68 70 71 69 68 66 63 62 61 58 50 42 37 36 36 35 37 41 45 49 54 57 56 54 54 57 62 70 79 88 94 97 99 99 96 94 94 93 91 90
87 85 80 76 73 68 59 47 38 33 33 33 32 29 27 24 21 18 16 15 15 14 14 15 17 18 20 22 24 27 33 40 47 55 61 64 63 63 64 66 68 69 70 72 73 72 68 69 71 70 66 62 59 56 53 49 45 40 37 36 35 33 31 34 43 52 58 59 57 56 56 56 55 56 61 71 81 89 94 97 99 100 98 97 97 96 93
78 74 68 62 57 51 41 33 31 32 33 32 27 22 20 20 19 19 19 19 20 23 25 24 24 27 30 32 33 35 40 46 51 55 59 62 64 66 66 67 71 75 75 74 73 73 72 68 62 57 54 52 50 47 43 41 38 37 36 35 34 33 34 38 47 56 62 64 62 61 60 59 57 55 55 60 71 84 94 99 98 98 98 98 97 97 94
71 69 62 51 43 38 34 32 31 28 24 22 21 21 26 34 37 33 29 29 32 34 35 34 35 41 49 54 56 56 57 59 63 66 67 68 71 75 76 76 76 80 81 78 74 74 73 65 54 48 49 52 50 46 42 40 37 34 33 33 32 34 38 44 52 59 63 63 63 64 62 58 56 55 54 53 58 70 87 98 100 98 98 98 98 97 96
74 74 67 54 47 44 39 33 30 28 27 33 42 49 56 63 61 51 42 41 43 45 47 50 54 62 70 75 77 78 79 79 78 77 79 79 78 80 83 84 83 83 82 79 77 76 73 65 57 52 52 54 53 50 46 43 39 36 35 34 34 38 43 46 51 56 58 58 61 66 64 55 48 47 48 49 51 56 69 86 98 100 98 98 100 99 97
63 63 57 45 39 38 33 31 37 42 45 49 56 59 59 60 60 55 52 53 57 61 64 67 70 73 76 79 80 82 83 81 74 70 70 71 71 72 75 77 77 76 76 76 77 77 75 69 61 53 48 49 51 51 48 45 42 39 37 35 35 40 44 45 46 50 53 54 57 60 56 48 41 39 42 46 49 50 56 71 89 99 101 99 99 99 97
63 60 49 37 34 39 44 47 49 48 44 44 48 53 55 59 63 65 67 71 75 77 76 75 75 76 78 81 80 77 74 74 74 74 74 73 73 73 73 71 70 72 75 75 73 71 69 67 62 53 46 44 46 47 47 49 49 45 40 39 43 50 54 54 52 52 50 48 48 49 46 41 40 40 42 45 48 49 51 60 76 92 101 101 99 99 99
68 63 52 42 42 48 52 51 48 44 43 45 53 60 65 68 68 68 72 77 81 82 81 80 78 77 78 79 77 74 71 70 70 70 69 69 70 73 75 74 74 75 76 75 72 70 69 70 68 61 52 46 44 45 48 56 63 61 54 52 57 64 66 63 58 53 47 41 38 39 37 35 35 37 40 43 46 48 50 54 64 80 94 100 100 100 100
60 57 53 49 45 41 38 38 42 48 52 56 60 67 73 74 72 70 72 75 76 76 79 81 80 79 78 74 69 67 68 69 68 68 70 71 70 70 73 75 76 75 74 71 69 67 68 69 69 66 59 51 47 48 52 60 69 73 70 67 69 73 71 62 52 45 39 33 30 31 32 33 34 35 39 42 45 46 49 52 57 68 82 94 99 100 100
63 53 43 37 35 36 40 48 55 59 61 65 70 73 75 75 73 70 69 70 72 74 77 78 77 76 74 71 69 68 69 70 70 70 72 72 69 67 67 67 65 65 67 65 62 61 63 66 71 76 74 62 52 51 57 64 70 76 78 77 76 74 65 51 39 33 30 28 27 29 31 33 35 36 38 41 44 47 51 54 57 61 71 85 95 98 98
Wind_Speed
38 36 35 34 33 33 30 27 30 30 27 28 32 34 32 31 29 27 26 27 26 24 21 21 19 17 16 16 15 14 14 15 15 16 15 14 15 17 16 17 18 19 21 22 23 21 20 21 22 21 20 21 25 30 31 31 28 24 23 22 23 25 26 24 19 14 17 21 22 24 26 25 26 28 27 25 24 22 21 19 18 19 21 23 25 24 23
35 36 36 37 38 39 36 32 33 34 34 32 32 35 34 32 35 35 30 28 27 24 21 19 16 14 14 15 15 15 15 15 17 18 16 16 18 17 15 16 18 20 24 26 26 25 23 21 19 19 18 18 21 26 29 31 31 27 25 23 23 26 28 27 22 14 13 19 22 23 26 26 27 28 27 25 23 22 22 20 18 19 21 23 24 24 23
34 37 36 34 34 37 38 37 36 35 36 36 35 35 34 34 35 35 33 32 29 26 23 21 19 17 16 16 15 15 18 20 19 19 18 17 17 18 17 16 19 24 28 28 28 28 27 24 23 23 21 20 22 25 27 30 31 27 25 25 25 26 26 27 27 20 14 16 20 21 24 25 25 26 25 23 22 22 22 22 20 20 22 24 25 25 24
35 40 36 33 33 32 36 44 45 40 36 36 37 35 34 34 33 31 31 32 29 25 23 23 24 23 21 21 20 18 19 20 18 20 21 18 14 15 18 21 26 29 28 26 27 28 29 28 28 28 25 20 21 24 25 29 33 30 29 29 27 26 26 27 29 25 18 16 18 20 21 23 23 24 23 22 22 21 21 21 21 22 23 24 24 24 23
33 34 26 26 27 23 30 47 51 45 40 37 37 38 36 35 34 31 30 29 26 24 22 22 23 22 19 20 20 19 19 19 18 19 19 16 17 22 25 26 28 28 26 27 28 28 28 28 27 27 24 18 18 22 23 26 30 29 29 30 28 26 25 25 27 24 20 19 19 19 20 21 21 22 22 22 21 20 20 20 20 22 22 22 23 24 24
30 28 19 17 15 16 32 44 40 41 46 43 39 38 36 35 35 34 31 29 26 23 21 20 21 22 22 22 23 24 24 23 21 22 22 21 23 27 28 27 27 28 28 29 29 28 27 26 24 24 23 19 19 21 23 25 26 25 26 29 29 26 24 24 25 23 21 20 19 18 19 20 21 21 21 21 20 19 20 20 21 22 21 21 22 24 24
27 25 15 8 10 25 43 41 28 29 35 36 37 38 35 34 33 31 31 31 28 24 22 21 22 24 26 27 27 27 28 26 24 26 28 28 29 31 30 30 30 29 28 28 28 28 27 26 24 23 23 23 22 24 26 28 29 28 27 28 27 26 25 24 24 22 22 21 17 17 19 20 19 21 20 19 18 18 19 20 20 20 20 21 21 21 22
23 18 13 12 16 26 33 31 26 27 27 26 29 33 35 34 31 29 30 30 29 26 24 24 24 24 25 28 28 28 29 29 27 27 28 28 30 31 31 31 30 29 28 27 27 27 27 27 27 25 23 24 24 24 25 28 31 31 30 28 27 25 25 24 24 24 24 21 16 15 18 18 17 19 19 17 16 17 18 18 18 18 19 19 19 19 20
25 20 19 24 26 27 29 28 23 23 26 26 25 30 38 38 32 31 30 27 27 28 27 27 28 27 27 27 27 24 23 23 23 24 27 26 24 25 25 24 22 23 24 23 23 25 27 27 27 27 25 24 24 24 23 26 31 32 30 29 27 25 26 26 25 24 26 24 18 15 17 19 18 19 19 18 17 17 17 17 17 17 18 18 19 19 20
28 24 18 16 15 24 36 35 25 20 21 20 21 29 37 34 29 29 28 25 26 26 23 23 25 27 26 23 20 19 20 22 22 23 25 23 18 17 19 17 15 16 18 19 20 22 24 25 24 24 24 23 24 24 22 24 30 31 30 28 26 26 28 28 25 24 26 26 22 17 16 19 20 21 21 21 21 20 18 18 18 18 18 18 18 19 19
30 27 17 12 15 24 29 24 21 23 23 22 22 26 33 35 32 29 26 24 25 24 22 19 20 22 21 15 14 17 19 22 24 24 23 23 19 18 19 16 14 17 19 20 22 23 22 21 20 19 20 21 23 23 22 23 28 30 28 25 24 25 26 25 24 24 25 27 25 20 17 18 20 23 24 24 25 24 22 21 21 20 19 19 19 19 19
32 28 20 17 23 27 21 14 15 19 21 25 23 16 19 27 30 28 27 25 23 22 22 21 20 19 15 12 15 19 18 19 22 21 21 23 22 21 20 18 19 22 22 23 24 24 21 18 16 16 18 19 21 22 20 20 25 28 26 23 21 22 23 22 23 24 24 25 25 21 17 17 20 23 24 26 27 27 26 25 24 23 22 22 21 20 19
33 28 22 20 26 29 23 18 21 21 18 21 24 21 16 14 17 24 29 29 26 24 24 25 23 19 16 17 20 20 18 18 19 18 17 18 20 21 22 22 23 23 21 22 24 22 19 17 16 16 17 17 20 21 20 19 23 26 26 24 22 21 22 22 24 25 26 26 25 23 18 17 21 24 24 27 29 29 29 28 26 25 24 24 24 23 22
36 33 26 21 27 35 30 21 20 21 18 21 27 29 23 14 14 20 24 27 29 27 25 24 22 19 19 21 23 21 19 20 21 21 21 20 19 21 22 22 22 21 20 20 21 21 20 17 17 17 17 17 19 22 23 22 22 23 24 24 23 22 23 23 24 25 26 27 27 25 19 17 21 25 26 29 32 32 31 29 26 24 24 25 26 25 23
32 25 20 16 19 25 24 21 24 25 24 26 26 26 25 22 20 19 20 23 25 26 25 24 22 21 20 20 21 21 21 21 22 23 24 22 18 16 16 16 18 19 18 19 19 20 19 18 17 16 16 16 18 22 23 22 21 22 23 24 24 22 23 24 26 27 26 24 24 23 21 20 24 27 29 31 33 33 31 29 26 24 24 26 27 27 25
26 21 22 24 21 14 9 12 22 27 28 28 24 22 23 23 20 19 20 22 23 23 24 21 19 20 22 22 21 19 18 18 17 16 16 15 12 10 10 11 15 16 16 17 19 19 18 18 17 16 15 16 18 21 22 21 22 24 23 23 21 21 22 24 26 27 25 22 22 24 25 26 28 29 30 32 33 32 31 30 28 26 26 28 29 28 26
30 31 33 34 31 24 17 15 18 22 27 28 24 22 21 19 18 20 20 21 22 22 21 19 17 16 17 18 16 14 14 16 16 13 10 9 11 11 9 9 13 16 15 16 17 19 20 20 19 17 17 17 18 22 23 22 22 22 22 21 20 22 25 26 26 24 23 22 24 26 27 30 32 31 30 31 32 33 33 31 29 27 28 29 30 30 28
31 35 36 35 34 31 29 27 24 25 29 29 28 29 28 24 21 19 16 17 19 17 16 17 17 13 11 12 12 14 16 16 15 14 12 11 11 11 9 8 10 14 14 14 15 17 19 21 22 22 21 20 21 24 24 22 23 23 22 23 23 23 25 25 22 22 22 22 25 26 28 31 32 31 30 30 31 33 34 32 30 28 29 30 31 31 30
29 32 34 33 32 30 30 29 26 28 33 33 29 28 28 27 26 21 16 15 18 18 17 16 14 11 11 12 13 14 15 15 15 16 15 14 13 12 11 12 13 14 14 14 15 16 18 19 22 24 25 24 25 27 26 24 25 27 26 27 27 27 27 25 24 24 25 25 26 26 27 29 30 30 31 31 30 31 33 32 30 28 28 29 30 30 27
29 31 27 22 22 27 29 27 26 28 30 29 25 23 23 23 23 22 19 15 16 20 20 15 10 9 10 12 13 12 13 16 17 17 17 17 17 16 15 14 14 15 16 16 17 18 18 19 20 22 25 26 28 30 29 27 28 29 30 31 32 32 32 32 30 30 29 28 28 28 27 27 28 29 30 30 28 28 29 29 28 27 27 28 29 29 26
27 30 27 21 20 23 25 27 29 27 23 20 21 24 23 21 17 17 18 16 15 15 14 12 10 9 10 13 14 14 15 17 19 20 21 21 21 21 20 18 16 17 18 18 18 18 19 19 20 21 23 25 28 31 31 30 30 29 29 31 33 35 35 35 34 33 31 28 28 28 28 27 26 27 28 27 26 27 27 26 25 25 25 25 26 26 23
24 26 28 28 27 25 22 22 24 22 20 21 23 22 21 18 13 10 13 14 13 11 9 9 10 10 12 15 17 15 17 19 21 23 24 23 23 23 23 21 20 19 19 18 18 18 19 21 22 22 22 23 26 29 30 32 33 32 31 32 34 35 35 35 35 34 32 29 28 28 28 27 25 25 24 24 25 25 26 25 24 22 21 21 22 22 20
22 22 22 23 25 25 21 19 21 20 20 24 25 20 16 14 12 12 13 14 14 13 12 12 14 16 18 19 19 18 18 20 22 23 23 23 24 24 23 23 22 20 19 19 20 20 19 19 21 23 23 23 25 26 28 30 32 34 35 36 37 36 36 36 37 36 34 32 31 29 25 23 22 22 22 22 23 23 23 23 22 20 19 19 20 19 20
21 21 21 21 22 21 22 23 23 19 16 20 23 20 15 13 15 18 20 21 20 20 19 18 20 21 20 19 19 19 19 20 21 20 20 20 22 23 23 23 23 21 19 19 20 20 18 18 20 23 24 24 24 25 26 28 30 31 33 35 36 36 36 37 39 39 37 34 31 28 24 19 19 21 21 20 21 21 21 21 20 19 19 20 20 21 22
22 22 23 24 21 16 16 18 17 14 14 17 20 21 21 18 15 16 19 22 23 23 23 22 21 21 19 18 18 19 19 20 20 19 19 20 21 22 21 20 19 18 18 18 19 20 20 21 22 23 24 25 25 25 26 27 28 29 31 31 32 33 32 32 35 39 40 38 32 29 27 23 19 19 20 20 20 19 19 20 20 20 20 20 20 21 22
24 23 22 22 19 14 10 10 11 11 12 13 15 18 20 17 16 18 22 24 24 24 23 22 20 19 19 19 19 19 20 20 20 19 20 19 19 19 18 17 15 15 17 18 19 20 21 22 22 23 23 23 24 26 27 26 26 27 28 30 31 31 31 30 30 33 38 39 35 31 29 26 22 20 19 18 18 19 18 18 18 19 19 19 19 20 21
21 21 19 17 16 14 10 9 10 11 11 11 13 14 13 12 14 18 19 19 19 19 19 18 18 17 16 15 15 16 17 17 17 18 19 19 17 16 16 16 16 18 20 21 21 22 23 23 24 25 26 25 25 26 28 28 28 28 28 29 31 30 30 31 30 29 31 34 35 33 30 28 26 24 21 19 17 18 20 19 18 17 18 19 19 20 20
16 18 18 15 12 10 8 7 8 8 8 8 9 10 10 9 11 13 14 14 15 14 13 12 12 11 10 10 12 14 13 13 14 15 16 17 17 15 14 15 15 17 19 20 21 22 23 23 23 24 25 25 26 27 28 30 31 30 29 29 30 31 30 29 30 30 30 31 34 34 33 31 29 28 25 22 19 18 20 20 20 19 18 18 18 19 20
12 12 12 11 10 8 7 7 8 9 11 12 11 11 12 12 12 13 13 12 10 9 7 7 7 9 11 15 17 17 14 13 14 14 12 11 12 12 12 12 14 16 17 19 20 21 21 21 22 23 22 23 24 26 27 27 28 29 30 29 30 32 31 29 28 29 30 31 33 34 35 36 35 32 28 24 22 21 20 19 19 20 19 18 18 19 19
9 10 10 11 11 10 9 9 11 12 13 12 9 8 9 10 10 10 9 8 8 9 8 8 9 13 17 19 18 15 12 12 12 12 11 10 10 10 11 12 14 15 16 17 19 20 20 20 21 22 21 22 23 24 25 25 26 28 30 30 29 30 31 30 28 28 29 31 33 33 33 37 41 38 31 26 26 25 22 20 19 19 19 20 20 20 18
11 13 13 13 12 12 11 12 13 13 11 8 7 8 9 10 10 11 11 10 11 12 13 14 16 17 18 18 15 12 11 11 11 12 12 13 13 13 14 15 15 16 16 18 19 20 21 21 22 22 22 23 24 25 26 26 27 29 31 31 30 28 28 28 28 28 28 30 32 32 31 34 40 42 35 29 29 29 25 21 20 20 20 21 22 22 20
12 13 13 12 13 12 10 11 12 12 11 10 11 13 14 14 14 15 16 16 16 16 17 18 19 17 16 14 12 12 12 13 14 15 16 16 17 17 17 18 18 18 18 20 22 22 22 22 22 23 22 22 22 23 24 26 28 30 32 34 32 30 28 27 27 26 27 28 30 33 31 31 35 40 39 35 32 29 26 23 22 21 21 21 21 22 23
13 13 13 13 12 11 12 14 14 12 12 13 13 13 13 13 13 14 13 13 13 12 12 13 13 13 12 12 13 14 15 16 18 18 17 17 18 19 18 18 20 20 21 22 23 23 22 21 22 23 23 23 22 22 22 24 26 28 30 33 32 29 25 25 25 25 26 26 28 31 32 31 31 34 38 39 35 31 27 26 25 24 23 22 20 20 23
14 14 14 15 14 15 16 17 15 13 14 14 13 12 10 9 8 8 9 8 8 8 9 10 11 11 12 12 14 15 15 16 17 17 16 17 18 18 18 19 21 22 22 23 22 21 20 21 23 25 25 24 23 23 23 24 25 25 27 29 28 24 20 19 22 25 26 27 27 28 30 32 31 30 34 38 37 33 30 28 27 26 26 24 22 21 23
14 14 15 16 16 16 16 16 16 16 13 9 7 8 9 9 8 8 9 9 9 9 10 9 10 10 11 12 13 14 15 15 16 16 17 18 19 18 19 20 21 22 21 21 20 20 20 21 23 25 25 24 24 24 25 24 23 23 24 25 25 23 21 20 21 23 25 28 29 28 29 31 32 32 34 37 38 38 35 33 31 29 29 27 24 22 23
14 15 14 12 11 9 9 8 9 9 7 4 3 5 7 7 6 7 8 9 9 9 9 9 10 12 13 14 15 16 16 16 16 16 18 19 19 19 19 21 21 21 20 18 17 19 21 22 23 23 24 24 23 24 25 24 23 22 23 22 22 22 22 21 21 21 22 24 26 28 28 29 30 32 35 38 41 43 41 38 35 33 31 28 26 25 25
14 14 13 10 8 7 7 6 5 4 4 4 5 5 6 6 7 7 7 9 10 10 10 11 12 13 14 14 16 17 17 16 16 17 17 18 19 19 20 21 21 20 20 18 16 18 23 25 23 22 23 23 22 22 23 23 22 22 22 21 20 21 21 21 20 21 21 21 22 24 27 28 29 31 33 36 40 45 46 43 39 35 32 30 28 28 27
13 13 11 10 8 6 5 5 5 5 4 4 5 6 7 8 8 8 9 10 11 11 12 12 13 14 15 16 17 17 17 17 18 19 19 19 21 22 23 24 23 22 21 20 18 19 24 26 24 23 22 22 22 22 22 20 20 20 20 20 20 21 21 21 21 21 21 21 21 21 23 25 28 30 32 34 37 42 46 45 41 38 35 33 31 30 28
13 12 10 8 8 6 4 3 3 4 5 6 7 8 9 10 10 11 11 11 12 12 13 14 15 16 17 18 18 19 19 19 20 21 22 22 23 24 26 27 26 25 23 21 19 19 21 24 24 22 21 20 21 22 21 19 18 19 20 19 19 20 19 19 20 21 21 22 22 22 21 22 24 27 31 33 36 39 43 45 44 41 38 35 33 31 28
11 10 9 7 7 6 5 5 5 6 8 10 10 10 11 12 12 12 13 13 13 14 16 16 17 18 19 19 19 19 20 20 20 21 21 22 22 24 26 27 26 25 23 21 19 19 21 23 23 22 20 20 21 22 21 19 20 20 21 20 20 19 19 19 19 21 22 22 23 22 21 21 21 23 27 31 34 37 42 46 47 44 40 37 35 32 28
11 11 10 8 7 6 6 6 7 8 9 10 11 11 13 13 13 14 15 16 16 17 18 18 20 21 21 22 21 21 22 23 23 22 23 24 24 25 27 27 25 23 22 21 20 21 23 25 24 22 20 20 21 21 21 20 21 21 21 21 21 20 19 19 19 20 22 22 22 22 22 21 21 21 22 25 29 33 38 43 48 48 42 38 37 35 29
12 10 8 7 7 7 7 8 9 10 10 11 12 13 14 14 15 16 17 17 18 19 20 20 21 22 23 24 25 25 24 25 24 24 25 26 26 27 28 27 25 23 22 21 21 22 24 24 23 21 21 21 22 23 22 22 22 22 23 23 23 22 21 20 20 20 21 22 22 22 22 22 22 22 22 22 24 27 31 36 43 47 45 40 39 39 33
10 8 7 7 6 7 8 9 10 10 11 12 13 14 15 16 17 18 19 19 20 21 22 22 23 24 25 26 27 26 25 25 25 24 25 25 25 25 26 25 24 22 21 20 21 23 23 22 21 22 22 23 23 23 23 23 24 25 25 24 24 23 22 21 20 21 21 21 22 22 22 22 21 22 23 23 23 23 25 28 33 39 41 38 37 38 36
8 6 5 6 6 7 9 10 10 11 12 13 14 15 16 18 19 20 21 22 23 24 24 25 25 25 26 26 25 25 25 25 25 25 24 24 25 25 25 24 24 22 21 21 22 23 24 22 22 24 25 25 24 24 24 24 25 26 26 25 24 23 22 21 21 21 21 22 22 22 22 22 22 21 22 23 24 24 24 25 27 31 35 35 33 32 33
9 7 7 8 8 10 11 11 12 13 14 15 17 18 19 20 21 22 23 23 23 24 24 24 25 25 25 24 23 22 22 22 23 24 24 25 25 25 24 23 22 21 21 22 23 24 25 25 26 27 27 26 25 24 25 25 25 26 25 25 24 23 22 21 21 21 22 22 22 21 22 22 22 22 21 21 23 24 25 26 27 29 33 37 37 34 31
8 8 9 10 10 11 12 13 14 16 16 17 19 20 20 20 22 22 22 21 21 22 22 23 23 22 21 20 20 20 20 20 20 21 22 23 23 23 23 23 22 21 22 23 25 26 28 29 29 28 27 27 26 26 26 26 25 25 25 25 25 24 23 21 21 22 22 23 23 23 21 21 22 23 22 21 22 23 25 27 29 30 31 34 37 37 35
7 7 8 10 11 12 13 14 16 17 17 17 17 17 17 17 19 20 19 18 18 19 19 19 19 18 17 18 18 18 18 19 20 20 19 20 22 24 24 24 24 23 23 22 23 24 26 27 28 28 26 26 26 27 27 26 25 25 24 24 24 24 23 22 22 22 23 24 25 25 22 21 22 24 24 23 23 23 23 26 29 31 31 32 35 37 37
7 7 9 11 12 13 14 15 16 16 16 16 16 17 17 17 18 18 18 17 17 17 17 17 16 16 16 17 17 17 17 20 23 24 22 22 25 26 25 25 26 26 25 23 23 24 25 26 27 27 26 25 24 25 26 27 26 25 25 25 25 24 24 24 24 24 23 23 25 26 25 24 24 24 24 24 23 23 23 25 27 30 32 34 36 37 37
9 10 11 13 14 13 14 16 16 16 16 17 17 16 16 16 16 16 15 15 15 15 15 16 16 16 16 17 19 19 19 21 24 26 25 24 24 24 24 24 25 25 25 25 27 27 27 27 28 28 27 27 27 27 27 26 25 24 26 26 25 24 24 24 24 23 23 24 24 25 25 26 26 25 24 23 24 23 23 24 25 28 31 34 36 38 39
9 10 12 13 13 13 14 16 15 15 16 17 17 16 16 16 16 16 15 15 15 15 15 15 15 16 17 18 19 20 20 20 22 25 25 24 23 24 25 26 26 27 27 28 29 29 29 30 31 30 28 28 29 30 29 27 25 24 25 25 24 23 23 23 23 23 24 24 24 24 26 27 27 26 25 24 24 24 23 23 23 25 28 31 33 35 37
11 11 13 14 14 14 14 15 15 15 16 16 17 17 16 16 16 16 15 16 16 17 16 16 16 16 17 19 20 20 21 22 22 23 24 25 25 26 28 28 29 30 30 30 30 30 30 31 32 30 28 28 29 30 29 28 27 25 25 25 23 22 22 23 23 23 23 23 24 25 26 27 27 27 27 25 24 24 23 23 23 24 26 28 29 31 32
11 13 14 14 14 14 14 14 15 16 17 16 17 17 17 16 16 15 15 16 16 17 18 19 19 19 19 20 21 21 22 23 23 23 24 25 26 27 28 29 29 30 30 30 30 30 29 29 30 29 28 28 28 29 28 28 28 27 26 25 23 22 22 23 23 23 23 24 25 25 25 26 27 27 27 26 25 24 23 22 22 23 24 24 25 26 26
Wind_Direction
246 246 248 250 252 256 261 261 254 250 253 256 257 256 250 241 241 245 244 245 245 244 243 238 236 236 227 223 228 231 234 236 236 240 239 245 260 266 267 267 264 266 268 267 268 266 263 268 272 269 270 275 278 279 278 274 272 271 271 272 276 272 255 234 227 246 269 271 271 271 270 269 267 265 265 265 269 275 276 279 284 277 264 260 261 261 262
249 247 248 251 252 255 260 262 257 252 253 256 257 258 255 250 250 251 249 248 248 244 242 238 236 237 233 235 242 243 246 249 254 261 260 255 256 254 255 264 265 262 257 254 253 253 253 259 263 264 271 276 272 271 274 275 271 268 266 264 267 273 268 251 237 235 259 273 273 269 268 268 266 264 265 265 266 268 268 271 276 273 267 264 268 274 273
248 245 246 249 251 255 260 260 256 252 252 253 253 255 256 254 255 254 251 251 251 246 243 243 245 247 248 249 250 250 251 249 253 262 259 250 249 248 252 263 261 255 254 253 253 255 257 260 263 267 270 266 262 263 270 275 272 265 264 266 266 268 271 265 256 247 251 271 275 270 265 263 262 261 263 265 266 267 268 270 272 271 269 269 272 277 277
245 245 244 245 251 261 263 256 250 247 249 251 251 252 254 253 254 254 250 249 249 245 241 243 246 249 253 256 255 253 253 249 247 250 249 246 248 245 244 246 246 249 257 264 266 267 266 266 270 276 275 268 269 273 269 268 269 268 265 266 265 262 264 270 270 264 259 268 278 277 266 259 259 261 262 263 265 265 267 270 273 272 270 270 272 276 275
242 246 243 242 251 266 262 252 249 246 244 246 249 250 252 250 249 248 246 246 249 249 247 246 247 249 253 254 249 244 239 233 230 233 233 237 243 239 235 239 246 255 266 274 277 276 275 274 275 277 273 261 265 277 275 267 267 269 267 264 261 256 259 271 275 271 264 262 272 279 271 262 262 262 262 263 264 266 267 269 270 268 268 269 271 274 273
240 244 240 237 242 249 250 251 253 250 244 241 244 249 250 249 246 246 246 249 254 255 253 254 253 249 247 242 237 235 231 226 226 230 227 229 243 250 251 255 261 268 274 277 278 278 277 276 275 274 272 260 247 254 262 265 266 264 260 257 253 251 258 270 274 276 276 272 274 278 272 264 262 263 263 265 266 266 266 266 265 266 266 267 269 271 271
242 243 232 224 234 242 248 252 255 253 249 243 242 245 247 247 250 250 248 249 252 252 252 256 256 251 247 245 243 244 245 241 240 244 246 249 258 266 268 269 271 276 277 276 276 276 276 275 271 267 267 263 254 250 254 260 263 263 261 258 256 257 264 270 273 278 283 280 277 278 272 264 260 262 262 263 265 265 263 263 263 264 265 267 268 270 272
240 234 204 210 240 248 251 252 247 246 245 239 238 243 245 246 250 254 252 250 249 246 244 250 256 253 248 248 250 255 261 262 259 257 260 264 266 268 271 272 273 274 273 271 274 274 273 272 270 266 262 260 259 258 256 258 261 263 263 263 265 267 271 273 272 274 277 273 264 266 272 269 262 261 259 256 258 261 263 264 265 266 268 269 270 270 272
234 228 220 232 247 256 254 246 237 237 239 237 240 251 256 255 253 252 250 249 248 248 247 248 251 251 251 254 261 264 265 266 264 263 265 267 268 270 273 275 277 273 268 267 271 271 270 270 268 264 261 258 257 257 256 256 258 261 266 269 270 270 273 276 272 270 274 271 256 250 266 272 270 269 267 264 263 264 266 268 269 271 273 273 272 271 271
232 228 228 234 243 252 252 245 235 235 243 245 245 251 254 250 242 239 239 240 243 244 244 242 242 246 253 260 264 257 246 249 256 260 264 268 269 274 280 285 284 276 270 268 270 270 271 272 268 262 259 259 258 256 253 252 254 258 266 272 273 270 273 277 272 267 271 270 257 244 253 268 275 277 277 277 276 275 275 274 274 276 277 276 277 277 277
230 223 220 218 228 243 249 246 237 239 245 244 239 245 250 244 235 230 226 227 235 235 230 231 238 248 254 255 249 241 236 244 252 252 255 261 266 276 286 288 278 273 276 276 273 272 274 273 268 262 260 263 263 259 252 250 253 257 262 266 268 268 271 272 268 263 263 264 258 250 249 262 273 277 278 280 280 279 279 278 277 277 277 277 278 280 282
227 225 222 225 231 236 235 229 232 239 243 239 232 235 248 242 235 232 226 225 232 232 225 225 230 239 243 236 235 237 235 239 247 250 255 263 271 279 283 278 270 271 277 279 275 274 274 271 267 266 266 269 270 265 255 246 248 254 257 254 252 255 258 262 262 260 259 259 257 254 254 263 272 275 275 277 278 278 279 279 277 278 279 280 281 283 284
227 228 231 238 240 237 233 237 250 254 242 225 218 217 226 231 231 233 231 227 226 223 224 230 232 232 233 230 232 240 247 250 255 261 265 270 274 274 270 268 270 272 272 275 275 274 273 272 272 273 272 271 269 267 261 247 242 247 251 249 245 243 243 249 254 258 265 266 255 246 249 262 273 277 278 278 277 276 273 271 271 275 279 281 282 283 284
231 230 234 249 254 250 245 241 249 252 233 214 215 220 222 220 220 224 225 225 228 230 234 239 239 235 235 233 233 239 251 259 261 262 264 266 270 269 264 263 268 271 270 270 269 269 271 273 274 275 273 270 266 265 263 254 244 243 248 253 254 247 242 247 250 254 265 267 253 244 251 266 276 283 286 283 277 272 268 264 264 269 276 280 281 280 280
225 222 224 238 255 263 260 243 236 237 229 221 221 223 225 222 213 208 213 222 229 234 236 238 240 242 243 241 238 239 245 252 257 260 261 261 263 267 267 265 267 269 269 265 261 261 266 268 271 273 273 270 267 266 266 263 258 254 253 256 257 251 247 250 251 252 259 261 257 261 273 280 283 289 292 286 279 277 277 276 275 274 273 275 277 276 275
213 209 221 233 242 259 279 254 244 239 230 223 219 217 221 223 219 220 228 232 234 238 241 242 243 245 244 242 243 244 245 247 251 255 259 258 256 258 263 269 271 267 260 258 258 258 260 264 267 269 270 270 270 269 268 269 269 267 263 261 258 251 248 249 250 251 257 263 266 274 280 283 286 291 291 286 283 282 282 283 283 279 272 268 268 268 269
232 234 240 246 248 251 254 255 253 243 233 230 227 223 223 226 233 241 243 240 239 241 241 235 229 232 237 239 242 246 242 237 237 242 251 258 257 256 257 269 280 276 264 257 258 257 258 261 265 267 267 267 267 266 264 263 264 266 265 263 259 254 253 254 252 254 261 267 272 277 282 286 290 291 287 282 281 282 282 280 277 274 270 268 267 262 259
244 250 250 250 250 252 254 253 247 238 235 232 229 229 231 233 234 234 229 226 227 228 228 221 214 214 223 224 228 237 236 235 241 248 254 255 253 258 260 259 272 277 268 261 261 261 260 261 263 264 265 264 263 262 260 258 258 259 260 261 262 261 261 260 257 258 262 268 274 280 285 287 289 288 284 280 279 280 281 278 272 268 267 267 264 258 252
244 251 254 253 251 251 254 252 245 238 234 227 217 215 220 225 226 221 214 215 216 215 217 215 210 216 228 226 229 237 240 248 260 264 264 261 255 257 258 255 262 273 274 270 267 266 265 265 264 263 263 263 262 262 259 256 256 255 255 258 262 264 265 265 263 264 266 269 273 277 281 282 283 283 281 280 280 279 278 277 274 271 271 268 260 256 253
241 246 253 257 252 249 249 249 248 242 233 227 228 229 224 221 221 217 214 217 223 225 229 232 231 233 237 236 239 246 251 259 268 270 268 268 265 263 264 266 271 275 276 275 274 272 270 270 269 267 265 264 263 263 263 260 258 258 259 260 261 262 263 264 265 266 267 270 273 276 277 276 278 279 280 282 283 280 277 276 274 273 272 267 258 252 250
241 244 246 244 245 250 250 247 248 243 229 226 241 246 233 219 219 226 228 232 237 237 236 238 241 241 244 248 252 258 262 266 270 270 269 270 271 271 270 270 270 272 275 279 280 277 274 272 269 269 268 266 264 264 265 265 263 261 262 263 263 262 262 261 263 265 266 268 272 275 274 272 272 276 279 281 282 279 275 273 271 270 270 265 256 249 248
246 248 247 241 240 244 246 244 243 239 231 233 240 239 230 221 221 234 239 238 240 242 243 248 252 251 250 251 254 260 265 265 265 267 268 269 270 272 272 270 267 267 273 277 278 279 281 281 276 270 267 267 266 265 264 265 265 264 262 263 263 264 263 262 260 260 262 264 265 267 269 271 273 275 277 279 278 277 275 271 268 265 261 256 251 249 252
247 252 254 247 239 233 232 240 246 245 244 245 243 240 239 231 214 211 225 233 232 229 228 235 241 242 243 248 256 265 268 266 264 266 267 268 267 267 269 270 269 268 270 272 274 278 282 286 284 276 269 265 265 266 265 264 264 265 264 264 263 262 262 261 259 258 258 260 260 259 261 268 274 275 276 276 275 275 274 270 264 260 254 250 250 251 255
246 248 253 256 252 243 239 241 244 243 241 240 236 230 225 220 210 209 217 224 223 224 229 238 245 249 255 260 266 269 268 266 267 266 263 263 265 266 267 268 270 271 271 270 272 273 272 274 278 278 274 270 267 268 268 267 267 266 265 265 265 264 262 260 260 260 258 255 255 255 253 255 264 271 275 276 274 273 272 269 265 262 257 253 253 254 256
253 252 252 253 250 241 233 231 228 223 225 229 225 214 208 212 221 225 228 232 236 243 253 261 263 265 267 265 264 265 267 269 270 267 263 262 265 269 270 270 272 274 272 268 267 268 269 272 275 277 278 277 275 273 271 270 270 270 269 268 269 269 267 264 261 259 256 251 248 249 248 246 248 258 269 275 276 272 267 263 261 260 258 257 257 257 257
253 252 249 244 233 215 207 218 223 223 225 226 224 222 222 232 251 257 253 252 254 259 265 269 269 269 265 260 257 258 261 264 267 268 266 266 267 268 267 263 261 262 262 262 265 269 273 275 276 276 277 280 282 282 280 276 272 272 273 274 273 271 270 267 263 260 256 251 244 242 244 244 243 243 250 261 270 271 267 262 260 259 260 260 260 259 258
243 240 233 227 223 216 217 236 244 241 238 235 235 238 242 252 265 270 269 265 262 262 264 266 267 264 260 261 266 267 266 266 269 269 265 262 260 261 263 261 259 260 263 266 272 276 278 276 276 276 278 280 281 283 284 283 279 274 274 276 277 275 271 268 266 263 259 253 247 243 242 243 244 242 238 237 246 259 264 264 262 261 261 262 261 260 258
230 228 222 220 223 224 229 249 257 249 246 255 258 255 251 252 260 270 275 271 265 261 260 264 270 273 270 270 272 271 269 267 266 265 263 260 256 256 260 261 261 263 269 274 277 279 281 281 281 282 283 282 281 281 282 284 283 279 277 276 276 276 273 270 268 265 261 257 254 251 247 244 244 244 241 236 235 245 255 260 261 261 260 261 259 257 256
224 223 220 223 229 228 229 253 264 247 229 228 234 236 234 235 239 245 252 263 273 278 275 272 274 273 263 252 246 245 246 248 250 252 257 259 258 259 263 266 267 272 278 281 280 281 283 285 286 286 286 284 284 283 281 280 280 279 278 276 274 274 274 273 269 265 261 259 258 256 252 249 246 244 242 239 238 240 245 250 256 259 260 261 260 258 256
224 223 222 227 233 230 224 235 251 250 236 229 232 238 236 237 241 247 258 276 282 275 269 262 256 254 254 252 248 245 246 250 250 252 255 255 255 260 265 267 272 279 284 284 283 283 285 285 285 285 285 283 282 280 278 275 274 275 275 274 272 272 273 273 270 267 263 259 258 258 256 251 247 244 242 241 239 238 239 241 245 250 254 258 263 268 269
217 219 219 223 229 232 231 230 237 244 244 240 244 249 246 245 245 246 248 250 248 244 242 240 239 241 246 252 255 252 252 256 259 259 259 260 262 265 265 265 270 276 279 279 281 283 285 286 285 283 282 282 281 280 278 275 273 274 275 275 273 272 271 270 268 266 264 260 257 256 255 252 248 244 241 239 237 235 234 237 241 244 246 250 257 264 268
215 218 219 223 227 231 234 235 235 239 241 236 229 227 227 228 230 230 228 226 227 230 231 233 235 239 245 252 257 253 249 253 257 258 261 265 267 269 270 271 273 274 274 275 278 281 285 288 288 286 284 283 283 282 279 277 275 274 275 276 275 271 268 267 266 266 265 262 257 254 254 254 251 246 240 237 236 235 234 237 242 245 247 248 250 254 260
216 219 221 225 227 227 231 233 231 231 234 234 230 228 231 231 228 228 229 227 228 233 236 237 241 248 251 252 254 252 251 254 259 262 265 267 268 270 273 274 274 272 273 276 279 283 288 290 287 284 284 285 286 284 282 280 278 276 276 277 274 269 265 266 267 269 269 266 261 257 254 254 254 250 243 239 238 238 238 239 242 245 247 247 247 250 257
218 222 223 223 221 222 226 226 221 218 222 223 216 214 221 223 215 218 227 228 223 228 239 247 253 258 259 260 263 265 266 268 270 272 271 270 271 274 274 273 274 276 278 281 285 288 290 287 283 283 284 287 288 288 288 288 286 285 285 283 276 270 269 271 271 273 274 273 269 263 256 252 252 252 247 243 240 238 238 240 242 244 246 247 247 249 253
218 226 227 223 221 221 219 213 204 202 206 207 194 193 201 202 198 207 223 232 233 236 246 258 265 266 266 266 266 266 268 270 273 275 274 272 274 276 275 275 278 281 282 285 290 293 289 283 282 285 289 290 290 289 290 290 288 287 288 285 278 274 276 277 274 275 278 277 275 271 263 254 250 250 249 246 242 239 238 237 238 241 243 244 246 250 253
220 221 215 208 210 211 202 195 198 203 203 199 198 205 212 222 232 239 245 251 253 254 254 258 261 262 263 265 267 270 272 273 274 276 277 277 277 276 276 278 280 281 283 291 300 300 292 286 285 288 292 292 291 291 289 287 284 281 279 279 279 278 278 276 273 273 276 279 279 276 270 261 252 248 248 247 243 240 238 235 235 239 243 244 244 247 251
215 211 198 187 190 193 179 171 186 212 217 218 225 229 232 240 247 250 254 257 261 264 264 264 266 270 273 275 277 281 282 280 277 278 280 282 282 281 280 280 282 284 288 294 297 291 287 286 287 289 289 288 289 290 288 286 284 282 280 281 284 283 280 277 278 278 279 281 282 280 275 268 258 250 248 247 244 241 240 237 235 238 243 244 242 243 246
197 193 188 183 181 179 173 175 192 210 222 235 247 251 252 251 251 255 264 269 273 277 277 275 275 277 278 279 282 284 284 282 280 279 278 279 280 282 283 284 286 288 289 291 289 285 284 286 288 288 289 291 292 291 290 287 284 285 287 288 287 283 278 276 279 282 283 286 288 286 281 274 264 256 253 251 246 243 241 238 235 236 239 241 240 238 240
182 181 185 184 175 170 178 200 213 222 232 237 238 244 253 261 266 269 272 276 278 279 278 278 278 279 279 280 282 282 281 280 280 279 279 279 280 281 283 285 288 289 290 290 290 286 284 286 288 290 293 294 291 288 288 288 287 286 286 286 284 282 279 278 280 283 286 289 291 291 288 280 270 261 257 256 252 246 241 238 237 237 240 243 241 236 234
177 185 186 181 177 181 195 213 221 228 238 245 249 255 262 268 273 276 278 278 277 277 278 279 279 279 279 278 277 276 276 276 276 276 276 277 277 279 282 284 287 289 290 289 286 282 280 282 285 289 291 288 285 284 287 289 288 286 286 286 285 285 285 284 284 286 287 290 293 295 294 288 279 268 260 257 256 252 245 239 236 237 241 245 243 236 232
181 194 192 188 192 196 200 211 222 230 242 252 259 264 268 273 276 278 278 278 278 279 280 281 282 281 280 278 276 273 271 271 271 269 268 270 274 277 279 280 282 285 286 284 279 275 275 279 283 285 284 281 280 282 284 284 283 284 285 286 288 289 290 290 289 289 290 291 293 296 298 297 293 285 272 262 258 257 252 244 237 235 238 241 239 234 231
187 192 193 193 199 207 216 228 236 243 252 262 268 272 275 277 277 276 278 281 284 285 286 286 285 285 284 282 281 278 276 275 274 271 269 271 274 276 276 277 279 280 280 279 276 273 274 278 281 281 278 276 277 280 281 283 285 287 288 288 290 293 294 293 291 291 291 291 293 296 300 301 300 299 292 279 266 262 259 251 241 235 235 237 236 233 229
188 193 206 209 212 225 236 244 252 259 266 274 278 278 278 279 282 285 288 289 290 290 290 289 288 288 286 285 283 281 278 277 276 274 274 275 276 275 274 276 277 275 273 273 275 276 276 276 275 274 272 272 274 277 280 283 286 288 289 292 294 295 295 295 294 292 291 291 292 295 298 300 301 302 302 296 285 271 262 255 246 238 235 235 235 230 226
191 196 211 216 225 239 245 253 264 272 276 278 278 279 282 287 291 293 293 293 293 292 292 292 292 291 290 288 286 283 280 279 278 277 276 276 276 276 275 276 277 277 274 271 271 274 275 274 271 270 270 271 272 275 279 282 284 287 290 293 295 296 297 296 294 291 289 289 291 294 297 299 300 301 302 302 299 288 274 265 255 243 235 235 236 232 227
214 219 226 230 242 254 261 266 273 275 276 278 281 285 290 293 292 290 288 288 288 289 291 293 294 294 293 291 289 285 281 280 278 276 275 275 276 278 280 279 277 275 273 271 270 271 272 273 273 272 272 273 274 276 277 279 281 284 288 292 294 295 295 294 292 290 289 290 292 294 295 297 300 301 301 302 302 297 286 276 267 255 245 242 242 240 234
227 236 247 253 261 267 270 273 275 277 282 288 293 296 298 297 294 291 287 284 284 287 289 291 292 292 291 290 287 285 284 283 281 279 280 281 280 279 279 277 274 269 267 268 269 269 270 272 275 276 276 275 274 274 276 278 280 282 286 289 292 293 292 290 289 289 291 293 293 292 292 296 300 302 302 302 301 298 290 278 269 264 258 251 247 243 237
232 243 258 265 270 274 278 283 286 290 294 298 298 297 294 289 286 286 288 289 290 291 291 289 289 288 287 285 284 284 284 280 275 271 270 272 272 270 269 268 268 267 266 267 270 271 272 274 276 275 273 273 274 275 276 278 279 280 283 286 288 289 288 288 288 289 292 295 294 293 295 300 302 302 302 302 301 300 295 282 268 262 261 257 251 245 239
255 261 266 272 277 282 286 288 288 288 288 287 283 281 281 283 285 289 294 297 296 293 290 288 286 284 283 282 279 277 276 275 275 273 269 265 265 268 268 267 268 269 270 270 270 270 272 275 276 275 273 272 273 274 275 276 278 280 282 283 284 284 283 284 286 288 290 293 294 296 299 303 303 301 301 300 298 298 299 291 274 261 255 253 252 250 247
271 272 275 279 283 284 283 282 283 285 287 288 287 286 287 291 294 295 295 294 291 288 286 283 282 280 280 279 278 277 277 276 277 277 274 270 268 272 274 272 271 271 271 270 270 271 274 279 282 281 278 274 271 269 269 270 272 274 275 276 276 277 278 280 283 286 287 290 294 297 298 299 299 297 296 296 294 293 296 294 283 266 254 249 248 249 249
267 272 278 280 279 277 276 279 284 289 292 292 292 291 290 290 290 289 288 286 283 281 280 279 278 278 277 277 279 282 283 280 278 278 279 278 277 276 276 275 274 272 270 269 269 271 273 277 280 280 277 273 270 268 268 268 267 266 266 267 268 270 273 276 280 283 286 290 294 296 295 294 294 294 293 293 293 292 293 295 290 276 261 251 245 243 243
266 269 272 273 275 279 283 287 289 290 289 289 288 287 288 289 290 291 290 289 287 286 284 282 280 279 280 282 285 287 287 286 285 284 284 282 280 278 276 275 274 273 273 272 271 271 271 274 278 279 276 270 267 266 268 269 269 266 263 261 262 265 270 274 278 282 287 290 292 291 291 290 291 291 291 291 291 291 291 293 293 286 274 261 250 243 240
272 273 273 275 281 288 292 290 286 284 285 286 286 286 286 287 289 290 291 291 290 289 286 285 284 285 287 290 291 289 287 286 286 284 283 282 281 280 278 277 276 276 276 275 273 271 269 270 273 274 272 268 265 264 265 266 268 267 265 263 262 266 271 275 279 283 287 288 287 287 288 288 288 288 288 287 285 285 286 288 291 291 287 275 262 251 246